Wind_Speed
4 6 5 2 3 5 5 4 3 1 2 6 5 4 3 2 0 2 2 3 3 1 2 1 3 6 6 6 6 4 2 4 7 6 7 7 5 6 6 7 8 7 11 15 15 16 17 18 19 19 20 21 21 22 23 23 23 22 22 22 23 22 21 21 20 20 19 19 19 19 19 20 19 19 20 19 19 19 19 18 18 18 19 19 19 20
5 7 3 4 5 5 4 2 3 3 5 6 5 5 4 2 1 2 3 4 4 0 2 2 3 7 7 7 6 4 3 7 8 7 8 8 7 6 7 9 9 8 10 13 17 20 20 19 20 21 21 22 24 25 25 26 26 25 25 26 25 24 24 24 23 22 22 21 21 21 21 20 20 20 21 21 20 20 20 20 20 20 19 20 20 20
7 4 4 5 3 2 2 3 4 6 6 5 4 4 3 1 2 3 3 4 4 1 2 3 3 8 8 6 7 6 7 7 7 8 8 8 7 7 7 8 8 8 9 10 14 18 20 21 21 22 23 24 26 26 26 27 28 28 28 29 28 27 27 27 26 26 25 24 23 23 23 22 23 22 22 22 22 22 23 22 21 21 21 21 20 20
4 2 5 3 1 3 5 6 5 6 5 4 4 4 0 2 1 1 3 4 3 1 1 1 3 6 5 4 6 6 7 6 5 7 7 7 8 9 8 7 8 9 10 9 11 14 18 20 21 24 26 26 27 28 29 30 30 31 32 32 31 30 30 30 29 29 28 26 25 26 26 25 25 26 25 25 26 26 26 25 23 23 23 22 21 21
3 3 2 3 2 4 5 7 7 6 4 2 2 5 2 2 1 3 4 4 2 2 1 1 4 5 3 3 6 4 3 6 5 6 9 8 9 8 8 9 9 10 10 10 10 13 15 18 21 24 26 27 28 31 32 32 32 33 34 34 33 33 33 33 33 32 30 29 29 28 27 27 27 29 28 29 32 32 30 28 27 26 24 23 23 22
3 2 2 4 5 5 5 5 4 3 2 3 2 5 4 2 3 4 3 4 3 3 3 4 4 5 4 3 6 3 3 6 3 5 11 10 8 7 9 12 10 9 10 10 13 15 16 20 22 24 25 27 30 33 33 32 33 34 35 35 35 36 36 37 37 35 33 32 32 31 30 30 29 30 32 35 37 36 32 30 28 26 25 25 25 24
2 3 3 5 5 6 7 4 1 2 5 2 2 4 3 2 3 3 0 3 1 2 2 4 3 4 6 5 6 4 5 8 5 6 11 9 8 8 9 11 9 9 9 9 13 16 19 20 20 24 27 27 29 33 32 32 33 35 36 36 37 38 39 39 40 38 37 35 36 35 35 34 33 33 37 40 38 36 32 30 29 28 27 27 26 26
1 4 6 6 6 6 6 3 1 4 5 1 1 2 1 3 4 3 4 3 1 2 2 4 3 1 5 5 4 4 5 9 7 8 10 9 10 10 10 11 10 10 9 7 9 12 17 20 21 25 28 27 29 32 31 32 33 34 36 37 38 39 40 41 42 41 40 39 39 39 37 37 38 39 42 42 37 35 33 31 31 30 30 29 28 27
1 4 5 4 5 5 2 1 2 4 2 2 1 1 1 3 3 3 5 3 1 2 3 4 2 0 5 6 3 3 4 7 8 8 8 8 9 9 9 10 10 10 8 7 8 11 16 20 21 24 26 28 30 31 30 31 33 34 35 36 37 38 40 41 42 42 42 41 41 39 38 40 42 42 44 43 38 37 35 34 34 33 32 31 30 29
0 0 0 3 4 1 3 3 4 4 1 1 2 3 3 4 3 4 4 3 3 3 3 5 3 1 5 6 4 2 2 6 7 7 7 7 7 7 8 8 7 6 5 5 9 14 18 20 21 21 23 28 31 29 29 31 33 34 34 35 36 38 40 41 41 41 42 41 40 40 40 42 44 44 43 40 38 38 37 36 37 36 35 34 32 31
2 1 1 2 1 1 2 3 3 4 1 2 3 2 3 4 4 3 2 3 4 3 5 5 3 2 2 6 4 3 4 6 5 4 6 6 7 6 6 5 5 5 5 4 7 13 18 20 20 19 21 26 28 27 28 30 32 32 32 33 35 38 39 40 40 39 40 40 40 41 42 43 45 45 41 37 38 39 36 36 39 38 37 36 35 33
3 2 0 1 0 1 1 1 1 2 3 4 2 1 1 3 4 3 4 4 3 3 5 4 4 2 1 6 6 5 7 7 6 5 5 6 7 6 3 3 4 4 5 4 5 9 14 17 19 17 18 22 24 25 26 28 29 29 30 31 33 36 38 39 39 38 39 39 39 41 42 43 44 42 38 36 38 38 35 36 38 36 37 37 36 34
2 0 2 2 1 1 2 0 2 3 4 4 3 5 3 3 4 3 3 2 1 4 3 4 4 0 5 10 10 10 11 9 7 7 6 6 7 6 4 4 4 4 4 5 5 6 9 13 16 16 18 21 22 24 26 27 28 28 29 28 30 34 35 36 36 36 37 38 38 40 41 41 40 38 37 37 39 39 37 36 37 36 36 36 35 34
2 3 3 2 1 1 3 3 1 2 3 4 3 4 3 2 3 3 3 2 3 4 3 4 3 2 5 8 10 12 11 6 5 7 6 6 6 6 6 5 5 5 4 5 5 5 8 11 14 16 18 20 22 24 26 27 27 27 27 27 28 31 32 32 33 34 34 36 38 39 38 39 38 38 39 39 39 40 39 38 38 37 35 33 33 33
1 3 1 1 1 1 3 2 3 3 2 1 3 4 3 4 2 3 4 3 4 4 4 4 2 3 4 4 5 7 7 5 4 5 4 4 5 5 6 5 5 5 4 4 4 6 9 12 14 15 17 19 21 23 23 24 25 24 25 25 25 27 29 29 30 31 32 34 35 36 36 37 38 38 39 39 40 40 40 40 38 35 33 31 31 29
2 3 3 2 2 2 2 2 3 5 2 1 2 3 1 4 4 1 3 4 2 2 3 2 3 5 4 7 7 3 5 6 3 4 3 4 4 3 4 5 4 5 5 4 4 6 10 13 13 14 16 18 19 20 21 22 23 23 23 23 23 24 25 26 27 28 29 30 32 32 33 35 36 37 38 39 40 40 40 39 36 34 33 32 30 27
1 3 3 3 2 3 1 2 1 2 0 0 1 1 3 3 6 3 1 1 4 0 3 1 4 5 4 8 9 5 5 5 3 3 3 4 4 2 3 4 4 5 5 5 4 6 9 12 14 15 16 18 19 20 21 22 23 24 24 25 25 25 25 26 26 27 28 28 30 31 31 32 34 35 37 38 40 41 40 38 36 35 35 33 31 28
3 2 4 0 1 1 0 2 3 2 2 2 1 3 2 2 3 3 0 3 3 1 4 2 4 6 2 4 7 7 6 7 4 4 4 3 2 2 3 4 5 5 5 6 6 6 8 11 14 16 17 18 19 20 20 21 22 24 24 25 25 25 26 26 26 26 27 27 29 29 30 31 32 33 35 36 38 39 38 37 36 34 33 32 30 27
3 1 6 1 2 2 2 2 2 4 2 2 3 2 2 2 1 1 1 2 2 3 5 3 4 5 4 4 5 6 7 8 6 5 4 4 3 2 4 6 6 5 5 4 5 5 8 12 14 15 16 17 19 20 20 21 23 24 25 25 26 26 26 26 27 27 27 26 27 28 29 30 31 31 32 34 35 36 35 36 34 30 29 28 27 25
2 1 4 3 2 2 2 1 2 1 3 3 1 1 2 3 4 1 2 2 1 3 4 4 3 4 6 6 6 8 10 8 7 6 4 5 4 3 4 5 5 5 4 3 3 4 7 11 14 15 16 16 17 19 20 22 23 24 25 26 27 27 28 28 29 29 28 28 28 28 29 30 30 31 31 32 33 33 33 33 30 28 27 25 24 21
2 2 3 5 3 1 1 3 5 5 3 2 1 0 1 1 1 0 0 2 3 2 3 3 5 6 6 5 7 10 10 8 7 5 4 5 5 4 5 5 5 3 2 2 3 4 7 11 13 14 14 15 17 18 20 22 22 24 25 26 26 27 28 28 29 29 29 29 28 29 29 30 30 30 30 31 31 32 31 29 27 25 24 21 19 17
1 2 3 3 2 3 5 3 3 5 5 5 4 4 4 3 3 1 3 2 2 2 4 2 6 10 6 5 8 9 9 7 6 5 4 5 5 5 5 4 3 1 2 3 3 5 8 10 11 12 13 15 17 18 20 21 21 22 24 24 24 25 25 27 28 29 30 29 29 29 29 29 29 28 27 27 29 29 27 24 21 19 17 16 15 13
2 3 1 4 4 4 5 3 1 3 4 4 3 3 4 4 5 5 4 4 1 2 2 3 3 10 6 6 7 6 5 4 5 7 5 5 5 5 4 2 1 3 4 3 4 6 9 9 9 10 12 14 15 16 18 19 19 20 22 22 22 22 23 24 25 28 30 30 29 30 30 30 29 28 25 23 22 21 18 16 14 13 13 13 13 12
1 2 0 4 5 3 4 4 3 2 2 2 2 2 4 3 3 5 5 3 2 3 2 2 4 9 6 3 4 2 2 3 4 5 4 5 5 4 2 2 4 4 4 3 5 7 8 8 9 10 11 12 14 15 16 16 17 18 20 20 19 19 21 22 24 26 27 27 28 28 29 30 29 28 26 21 16 13 11 10 9 9 10 11 11 11
1 1 1 3 6 7 6 5 5 4 0 3 3 2 4 4 6 3 2 3 1 6 7 3 8 9 4 1 0 0 2 3 4 4 4 4 4 3 3 4 4 4 3 4 4 5 6 7 8 9 10 11 11 12 13 14 16 17 18 18 17 17 20 22 23 24 23 23 24 25 26 26 25 24 23 19 13 9 7 6 6 7 8 8 9 11
2 2 3 1 3 5 5 5 4 2 1 2 1 3 5 5 7 4 1 3 3 5 7 6 10 9 4 2 2 3 4 5 6 4 3 3 4 4 4 4 4 4 4 5 4 3 3 4 6 7 8 9 8 9 12 14 15 16 17 17 16 17 20 22 21 20 19 20 21 22 23 23 22 20 18 15 12 8 6 5 5 6 7 9 11 12
2 1 4 6 7 8 8 7 3 2 2 5 4 5 6 6 6 5 3 3 5 3 4 11 13 13 15 13 9 8 7 7 6 4 4 3 3 4 4 4 3 3 4 4 3 2 1 2 3 5 6 6 7 10 13 15 15 16 16 16 15 16 19 20 19 17 17 18 19 20 20 20 19 17 16 13 11 9 8 7 8 9 10 11 11 12
4 3 5 7 11 11 10 9 3 0 5 9 9 8 8 7 7 8 8 9 5 4 8 13 8 10 19 18 12 9 7 6 6 6 5 4 4 3 4 3 2 3 4 3 2 1 0 1 2 4 5 7 9 11 14 15 15 15 16 15 14 14 17 18 17 15 16 17 18 19 20 19 18 17 16 14 13 11 11 11 11 11 11 11 12 12
4 4 4 4 8 10 9 10 8 5 7 9 10 12 10 9 10 13 17 13 8 7 16 11 5 9 17 17 15 12 8 6 6 6 4 4 4 4 4 3 3 3 4 3 2 1 1 1 1 3 6 8 10 12 14 15 15 15 15 14 12 12 14 15 14 14 15 16 17 18 19 18 17 17 16 15 14 14 13 13 12 12 12 12 12 12
4 4 2 2 6 10 8 9 8 6 6 8 11 13 11 12 14 16 18 15 11 14 19 15 12 15 17 17 17 14 9 5 4 3 4 4 4 4 4 4 4 4 4 4 3 2 2 2 1 3 6 8 9 11 13 13 14 15 14 12 11 12 13 13 12 13 14 15 15 16 16 17 17 16 16 15 15 14 14 13 13 12 12 12 12 12
2 3 1 3 4 9 5 3 3 4 6 9 14 16 14 13 14 15 15 13 11 14 17 15 15 17 17 14 12 11 6 1 3 4 5 5 5 5 5 5 5 5 4 4 4 3 3 1 2 3 4 5 7 10 11 11 12 13 13 12 11 12 12 11 12 12 13 13 14 14 15 15 16 15 15 15 14 14 14 13 13 13 12 12 12 12
2 3 2 5 3 6 2 6 6 6 7 11 17 20 18 12 10 10 10 9 9 10 10 8 9 13 13 7 4 7 5 3 5 6 5 5 6 6 6 6 5 5 5 4 4 3 2 2 2 2 3 4 7 9 9 10 12 13 12 12 11 11 11 11 12 12 12 13 13 13 13 14 14 14 14 14 14 14 13 13 13 13 13 13 13 13
4 2 0 2 2 5 3 5 6 8 9 11 12 12 11 8 8 7 6 8 10 8 5 6 8 9 5 3 3 4 5 6 7 6 5 5 6 6 6 6 6 5 5 4 4 3 3 4 2 2 3 4 7 7 8 9 10 11 11 10 11 11 11 11 12 12 12 12 12 13 13 13 13 13 13 13 13 13 13 14 14 14 14 14 14 14
3 4 2 2 2 5 6 6 7 6 7 8 5 5 6 7 10 9 7 9 10 9 7 8 8 7 3 4 5 7 6 6 5 5 5 5 5 6 5 5 5 5 4 4 4 4 5 5 1 3 3 5 6 6 7 8 8 9 9 10 12 13 12 11 11 11 11 12 12 13 13 13 13 12 12 12 12 13 13 14 15 15 15 15 16 16
4 4 2 1 1 4 5 6 6 6 8 6 6 5 6 7 9 9 9 12 10 11 12 12 12 12 9 6 6 6 6 4 4 5 5 5 6 6 5 5 5 5 4 4 4 5 6 3 2 3 3 5 5 4 6 7 7 9 10 11 12 12 10 10 10 10 11 11 12 12 13 13 13 12 12 13 13 13 13 14 15 15 16 16 17 17
6 5 2 1 2 3 2 2 2 8 10 10 11 6 2 2 3 4 7 12 10 10 12 12 14 14 9 6 5 4 3 2 3 4 6 6 6 6 5 5 5 5 5 5 6 6 5 1 2 3 3 4 4 3 5 6 8 10 11 10 10 10 9 10 10 11 11 12 12 13 13 13 13 13 13 13 13 14 14 14 14 15 15 16 17 17
7 5 2 2 3 2 2 4 4 9 14 11 6 1 3 4 5 5 3 8 8 9 10 10 11 11 7 5 3 2 1 2 5 5 6 7 6 6 6 5 6 7 6 7 7 6 3 1 3 2 3 4 3 3 4 7 9 11 12 10 9 9 10 11 11 12 13 13 14 14 14 14 14 14 14 14 14 15 15 14 15 14 15 16 17 17
5 3 4 4 2 2 1 4 4 6 9 6 3 2 2 3 6 7 0 6 7 9 10 9 9 10 7 4 3 3 3 3 6 6 4 7 6 6 6 6 9 8 7 8 7 4 2 2 2 2 3 3 3 3 5 8 10 12 11 9 9 9 10 11 12 13 14 15 15 15 15 15 16 16 16 16 15 15 15 15 15 15 15 16 17 18
2 2 4 3 3 1 3 3 3 5 8 5 4 3 2 2 5 6 4 9 7 7 8 9 9 9 7 5 4 4 3 3 7 6 4 7 7 6 7 6 7 7 6 8 6 3 2 2 2 2 3 3 3 4 6 8 10 11 10 8 9 10 11 12 13 14 15 16 16 16 16 16 17 17 17 17 17 16 16 16 16 16 16 16 17 19
3 2 2 4 6 4 4 3 4 6 9 6 4 3 3 2 6 7 5 9 6 5 7 9 9 9 6 5 4 5 4 6 7 3 5 7 6 7 8 7 7 9 10 9 5 2 2 2 2 3 3 3 3 5 7 9 11 10 9 9 9 10 11 12 14 15 16 17 17 18 18 17 17 18 18 18 18 17 17 17 17 17 17 17 18 19
1 1 2 4 5 5 6 5 5 6 8 8 6 6 5 3 6 3 6 8 5 5 6 8 8 8 6 6 5 5 7 6 2 2 6 7 5 6 8 8 8 10 11 8 4 2 2 3 3 3 3 3 5 7 9 10 11 10 9 10 10 11 12 13 15 16 17 18 18 18 19 18 18 18 18 18 19 19 19 18 18 18 19 19 20 21
2 1 1 2 2 3 5 4 5 7 8 6 5 5 5 3 1 5 7 3 5 7 7 7 8 7 6 7 7 7 6 3 4 5 7 7 6 6 8 9 10 10 10 7 3 3 3 3 3 4 4 5 7 9 9 10 10 10 10 11 12 12 13 14 16 17 18 19 19 19 19 18 18 18 19 19 19 20 21 20 19 20 20 20 21 22
6 3 2 3 4 3 2 2 4 8 6 6 10 5 2 5 5 5 4 2 4 6 6 6 7 6 6 7 8 8 5 3 4 5 6 5 5 6 8 9 10 11 9 6 3 3 4 3 3 4 6 6 8 8 8 9 10 10 11 13 13 13 15 15 16 17 18 18 18 18 18 18 18 18 18 19 19 20 21 22 21 21 21 21 22 23
5 5 3 4 4 5 4 6 6 5 5 9 9 5 6 9 6 3 3 3 3 4 5 5 6 6 7 8 7 6 6 5 4 5 5 4 4 6 7 8 10 10 8 5 4 4 4 5 5 5 6 7 8 8 7 9 10 12 13 14 14 14 15 16 16 17 17 18 18 19 19 19 19 19 18 19 19 20 21 22 21 21 21 21 21 22
8 8 5 5 5 6 7 10 7 3 4 8 8 5 5 7 4 3 4 4 3 4 4 4 5 6 7 7 6 5 5 5 4 5 5 5 5 5 6 8 10 10 7 5 5 5 5 6 6 6 8 9 8 7 7 8 10 13 15 15 14 14 15 15 16 17 18 18 19 19 20 20 20 20 19 19 19 19 21 21 21 22 22 21 22 22
7 5 3 2 3 5 9 10 8 7 7 8 9 8 5 6 5 3 5 5 4 4 5 5 6 6 6 6 6 4 4 5 5 5 5 5 5 5 6 8 9 8 6 6 6 6 7 7 7 8 10 11 9 8 8 8 10 13 15 14 13 13 14 14 16 17 18 19 19 19 20 21 22 21 21 20 19 19 20 20 21 22 22 22 23 23
4 3 3 4 4 5 8 7 5 8 9 6 6 8 7 7 6 5 5 5 4 5 5 5 5 4 5 6 6 5 4 5 5 5 5 5 5 5 7 9 10 9 8 7 7 7 8 8 8 9 11 13 11 9 9 10 11 12 13 13 13 13 14 14 15 17 18 19 20 21 21 22 23 22 22 21 20 20 21 21 21 22 23 23 23 24
1 2 3 6 7 8 11 11 6 6 8 7 6 7 7 7 7 6 4 4 3 4 4 4 4 4 5 5 5 4 4 4 6 5 5 5 5 5 7 10 11 10 8 8 8 8 9 10 10 10 12 14 13 10 10 12 12 11 11 12 12 12 14 15 16 17 19 20 21 22 22 23 23 23 23 23 22 23 23 22 22 22 24 24 23 24
4 2 3 4 5 8 11 12 10 9 10 8 6 7 7 6 6 5 4 3 4 4 3 3 3 3 5 5 4 4 4 5 5 5 5 5 4 5 8 11 11 10 9 9 9 10 10 11 12 12 14 15 13 12 13 13 12 11 10 11 11 12 15 17 17 19 21 21 22 23 24 24 24 23 22 23 24 24 25 24 23 23 25 26 24 23
4 6 6 2 5 9 9 8 6 6 8 7 5 6 7 5 5 5 4 4 5 6 6 5 3 1 3 5 5 5 5 5 5 5 5 5 5 7 10 11 11 11 10 9 9 10 11 12 13 13 15 15 14 13 14 14 14 12 10 10 11 13 15 17 19 21 22 23 23 24 24 25 25 23 22 22 24 26 27 28 26 23 22 24 25 24
5 9 6 4 7 10 10 8 5 4 7 8 6 5 5 4 6 7 7 7 7 6 6 7 5 2 2 3 5 7 5 4 6 7 5 5 8 10 11 12 12 11 10 9 10 11 13 14 14 14 16 16 15 15 15 16 15 13 11 10 11 13 14 16 18 21 23 24 24 25 25 26 25 23 22 23 23 25 27 31 32 29 24 22 22 22
Wind_Direction
45 65 41 7 295 296 293 266 201 204 110 118 98 84 95 115 65 311 308 320 328 2 306 273 281 280 269 257 242 251 288 253 255 261 261 260 254 254 254 259 258 253 258 266 271 267 261 255 254 255 255 255 254 253 250 248 247 246 246 246 246 246 245 245 245 247 249 251 254 256 258 261 262 264 266 269 272 276 278 280 284 289 293 296 298 300
50 70 18 303 268 269 291 240 159 84 65 80 96 92 62 75 251 271 246 311 344 353 277 339 322 283 261 252 241 223 242 247 238 239 252 252 252 254 252 260 261 260 269 273 271 268 264 258 254 256 256 255 255 254 252 250 250 249 248 249 249 249 248 249 249 249 252 253 255 257 258 259 260 261 263 266 269 271 272 275 278 283 287 289 292 294
50 58 305 295 258 234 28 70 103 83 72 63 81 97 57 10 290 275 258 322 4 13 280 354 332 276 260 251 241 216 218 241 230 221 238 244 250 253 247 255 262 267 273 271 268 265 263 260 256 255 254 255 256 257 255 252 252 250 248 249 250 249 249 251 252 253 256 258 259 261 261 261 262 262 262 263 265 267 268 271 274 278 281 283 286 288
72 340 306 306 196 112 50 41 62 69 62 56 76 97 16 314 6 273 283 327 356 41 216 248 285 278 285 287 259 233 223 247 241 228 241 238 243 250 247 250 253 258 265 268 269 265 263 261 255 252 253 255 256 256 256 253 251 250 250 250 250 250 251 252 254 255 258 260 260 261 262 262 263 263 263 263 264 264 265 268 270 273 277 279 281 282
102 275 340 42 71 100 72 34 46 67 39 6 111 127 168 281 228 218 279 326 341 20 64 348 324 300 325 335 281 276 253 257 251 248 257 245 240 251 259 256 246 246 255 261 266 265 260 258 256 255 255 255 255 255 256 255 254 253 254 254 254 254 254 254 256 257 258 259 259 259 260 259 259 260 260 259 261 260 261 264 267 271 273 274 275 277
81 286 62 62 48 76 92 48 33 104 72 340 227 161 161 211 235 247 310 10 27 352 353 31 16 298 317 317 271 301 322 274 248 243 259 257 245 244 253 257 249 243 245 246 256 263 262 259 259 259 257 254 254 257 259 260 259 258 259 259 258 258 257 258 258 258 258 257 258 257 256 255 254 256 257 258 261 262 261 265 268 268 267 267 269 271
45 5 69 90 73 66 76 62 336 140 94 19 211 152 127 154 202 231 120 71 71 266 319 51 104 263 311 303 271 310 312 287 281 254 258 261 252 240 244 254 251 247 244 240 250 258 260 261 260 260 260 255 256 264 265 264 263 263 263 263 261 261 261 261 261 260 258 257 257 256 255 255 254 255 260 263 264 265 264 265 265 263 262 263 264 264
340 4 28 51 61 61 67 59 292 126 102 353 218 123 118 167 186 190 139 128 196 244 342 26 110 232 296 281 281 325 307 296 296 270 262 257 249 242 242 249 249 247 244 241 251 255 256 258 257 259 264 264 266 271 270 267 267 267 267 267 265 264 264 264 262 261 259 257 256 255 254 256 256 256 262 265 265 265 264 263 262 261 261 261 260 261
344 11 10 31 53 61 93 187 181 132 96 288 270 72 174 157 161 135 113 120 4 11 326 321 58 101 275 277 315 346 311 298 290 270 261 254 248 246 246 249 249 251 248 240 249 259 260 261 263 266 272 276 276 277 276 274 275 273 272 270 268 267 267 267 264 262 260 258 257 255 254 256 258 259 262 264 264 263 263 260 260 259 258 258 258 258
233 16 114 95 76 69 248 247 178 140 15 258 126 64 65 76 70 75 93 111 44 20 272 284 358 37 274 283 310 342 279 265 264 262 261 258 257 253 250 255 262 272 270 250 254 265 270 273 276 279 282 284 284 284 283 284 282 279 277 274 272 271 271 270 267 264 262 260 257 255 254 255 258 259 261 262 262 262 261 259 258 257 256 256 256 256
321 333 160 112 86 201 239 260 177 150 80 113 112 48 47 35 37 58 55 88 62 333 263 275 330 67 295 283 257 225 223 215 215 247 266 273 275 265 261 276 293 303 293 281 276 277 281 285 288 286 285 290 296 296 293 293 291 287 284 280 277 277 276 274 271 268 266 264 260 257 256 256 258 260 260 260 261 262 260 259 258 257 256 256 255 254
351 23 279 277 285 115 63 329 146 105 81 101 105 74 64 340 3 24 355 43 77 277 261 288 326 97 209 267 249 233 240 222 196 214 245 263 276 281 295 302 297 298 296 299 294 289 293 297 299 299 297 302 308 309 308 307 304 300 295 289 284 284 284 281 276 272 270 268 264 262 261 260 261 263 263 263 264 265 263 262 262 259 257 255 253 250
354 246 295 319 326 97 87 18 351 12 42 70 68 65 62 346 2 1 324 355 197 242 261 313 333 193 226 255 255 252 257 248 223 218 227 240 262 282 304 305 295 291 291 293 287 287 292 293 299 306 309 312 316 319 321 321 318 313 308 301 292 292 295 290 284 279 275 273 270 268 266 266 267 268 268 268 268 269 268 267 266 262 259 256 252 247
339 306 325 11 316 64 105 112 2 332 17 40 86 90 91 70 31 313 285 308 268 262 283 302 314 287 272 269 248 244 262 269 239 235 241 244 258 278 288 293 296 290 275 268 270 277 281 286 297 306 312 318 323 326 329 329 329 325 319 313 303 302 305 301 294 288 283 280 278 275 272 271 271 271 271 270 269 270 270 268 267 265 263 260 257 252
56 297 296 104 247 55 87 127 147 141 75 35 168 126 120 143 143 253 235 231 266 287 295 298 290 208 235 274 236 226 265 286 247 242 254 257 260 271 280 287 300 302 291 271 270 275 280 290 302 312 320 328 332 337 341 342 343 339 334 329 320 315 317 314 307 301 294 290 287 283 279 277 275 274 273 272 272 272 271 270 269 268 267 265 262 260
103 248 255 287 266 97 85 206 134 108 82 251 182 102 100 177 148 164 198 180 164 327 295 272 243 217 226 288 296 283 288 289 265 257 266 268 270 280 291 301 313 307 304 301 289 281 290 307 324 334 341 349 354 359 2 4 4 1 357 353 346 340 337 333 327 320 312 306 300 294 289 285 282 279 277 276 275 275 273 272 271 268 267 264 262 260
73 280 284 313 315 69 101 212 106 67 118 135 130 176 225 175 121 115 234 100 91 90 275 225 249 279 317 302 306 351 341 323 323 290 277 268 278 314 315 308 305 299 303 307 294 292 309 331 354 8 13 16 18 20 20 19 18 15 12 8 4 359 355 350 344 337 330 323 315 309 303 297 291 286 282 280 279 279 276 273 270 267 265 262 258 254
133 288 293 279 142 356 68 137 42 25 114 102 187 214 196 119 88 97 314 346 41 238 266 228 240 278 318 287 312 351 331 310 310 301 299 290 307 351 312 289 286 288 296 302 304 317 342 9 25 29 31 32 30 29 27 24 19 16 14 10 6 2 358 353 349 343 338 333 325 319 313 307 301 295 289 285 283 282 278 274 270 267 264 260 255 250
123 297 299 243 171 300 13 80 2 346 44 103 181 181 115 138 230 59 129 287 322 283 280 285 270 262 214 226 287 299 278 279 289 304 312 303 323 345 301 291 290 291 297 310 325 351 23 37 38 37 38 35 31 27 23 19 15 12 9 6 3 359 354 351 347 343 339 335 329 323 319 314 308 302 296 292 289 284 280 275 271 266 262 258 252 246
101 104 286 270 213 282 13 94 236 291 29 44 95 44 38 146 175 167 145 178 218 269 287 313 315 259 223 212 217 242 252 249 253 276 284 271 275 276 274 285 288 292 309 334 2 29 43 45 44 44 41 34 28 23 19 15 13 11 7 4 1 356 353 351 349 346 341 337 333 327 323 320 315 310 305 300 295 289 283 278 271 264 259 253 246 241
54 117 246 290 310 286 248 209 198 183 143 88 130 223 337 94 133 222 223 143 147 204 245 292 293 263 238 207 199 226 243 229 219 238 258 259 265 263 258 263 272 290 339 31 57 52 49 51 50 44 36 29 25 21 18 15 12 9 7 3 1 358 357 357 357 354 349 345 340 335 331 326 321 316 311 306 301 295 288 280 271 263 254 245 239 239
100 149 205 286 308 236 241 245 195 180 167 156 176 196 184 145 118 132 281 289 114 184 194 193 283 276 250 188 200 221 230 230 209 190 221 257 264 267 268 264 269 308 82 83 77 67 63 60 49 37 30 26 24 19 16 14 12 9 6 4 3 3 5 5 4 2 359 356 353 349 345 340 335 329 319 312 306 299 291 280 268 257 246 238 237 244
143 108 163 262 250 231 258 290 99 166 157 142 178 193 152 137 132 151 233 254 182 216 183 118 276 277 260 182 196 217 218 219 188 171 206 262 263 265 276 287 92 118 128 122 97 82 75 64 44 33 30 26 23 20 17 14 11 8 4 3 3 6 9 8 5 3 2 3 3 1 359 357 353 348 340 328 315 301 287 274 262 252 244 238 239 251
123 86 4 283 290 306 315 339 24 44 88 133 232 164 142 159 149 155 186 187 182 215 178 104 262 268 278 217 197 226 235 214 200 193 220 258 263 260 244 136 127 143 149 126 100 86 73 55 39 33 28 24 21 18 15 11 7 4 2 360 1 5 7 6 4 3 2 5 8 9 9 6 2 358 354 346 331 309 290 278 266 252 240 235 244 260
242 198 80 339 326 330 339 350 350 345 333 211 242 195 162 128 97 111 155 109 250 227 174 182 263 258 268 320 125 213 228 234 250 235 220 229 235 222 177 151 156 163 136 104 91 74 59 44 36 33 26 22 19 14 10 6 2 0 358 355 355 1 4 3 1 2 2 5 9 12 13 12 9 4 0 357 348 332 313 294 269 249 243 250 266 271
235 194 142 148 263 278 288 292 291 286 244 229 226 202 197 158 138 161 149 117 243 234 160 190 254 264 277 301 292 273 264 275 278 259 235 231 206 179 167 160 164 156 120 103 93 69 57 49 41 36 26 18 14 11 6 0 357 355 353 349 349 357 1 359 358 1 4 6 9 10 10 11 10 7 4 2 358 346 328 305 286 281 283 285 283 279
90 225 213 199 212 228 245 255 236 131 263 270 255 222 206 191 169 136 109 189 208 176 191 229 249 278 287 277 271 271 267 270 277 279 274 246 199 171 164 161 161 142 119 113 111 101 97 86 57 35 21 11 10 9 3 357 354 349 346 344 344 352 356 354 355 1 6 7 8 8 6 5 4 2 0 358 353 343 331 319 311 306 301 295 289 283
94 284 244 214 229 242 256 272 283 129 260 260 257 242 213 193 169 159 205 225 153 124 254 246 222 255 274 275 273 270 264 260 268 276 265 223 191 177 163 162 174 135 121 128 139 144 186 95 55 20 9 7 7 5 359 354 350 346 345 343 341 346 350 351 356 4 6 6 6 5 4 3 360 358 356 351 346 340 333 325 318 312 305 298 292 284
127 256 243 204 249 257 261 272 270 254 255 254 253 250 230 200 183 196 224 226 162 199 255 256 196 232 264 277 280 278 280 283 274 263 236 190 176 177 174 192 209 162 146 166 185 191 207 144 43 9 8 7 6 1 355 351 348 345 345 344 340 341 346 349 357 4 3 2 2 1 360 360 360 359 358 355 352 348 341 335 328 321 313 305 295 287
155 246 232 151 280 275 262 263 257 243 261 269 260 251 235 214 205 213 233 234 212 231 254 266 268 264 266 271 277 283 290 285 264 209 169 180 187 188 201 213 203 180 175 194 212 214 201 177 75 19 12 8 2 358 353 349 346 344 344 343 340 339 344 350 357 360 360 359 358 356 355 357 359 1 0 359 357 354 349 342 336 328 319 309 297 288
199 258 167 98 303 287 286 318 298 226 243 267 270 260 243 223 218 226 238 241 235 242 254 265 271 271 268 264 268 280 282 218 186 202 202 205 196 192 209 211 195 187 194 210 218 213 206 174 73 26 11 4 357 355 353 348 346 348 348 345 342 341 345 353 356 355 355 356 355 354 355 357 358 359 359 359 356 354 350 344 338 331 322 312 302 293
179 258 1 60 318 282 358 14 329 296 277 274 274 269 253 223 206 220 228 220 212 222 240 254 257 261 265 256 241 260 256 206 215 230 228 216 197 194 207 204 191 196 207 218 219 215 212 176 123 30 1 360 355 354 354 352 352 354 353 350 347 347 348 351 354 352 351 353 354 356 357 356 355 355 354 354 352 350 347 341 336 330 321 313 306 297
150 171 58 72 274 274 328 352 325 331 317 284 263 256 246 209 189 212 239 224 203 186 188 216 234 248 247 166 189 255 245 231 237 231 220 217 204 198 202 193 185 200 211 212 213 212 193 167 137 14 354 354 351 351 354 357 357 357 355 348 342 343 344 345 348 348 349 352 355 357 357 354 351 349 348 347 345 341 339 335 330 326 320 312 304 296
136 134 164 174 236 269 295 333 335 322 293 276 247 190 183 176 181 197 235 238 207 185 203 234 251 265 247 194 227 251 236 224 232 225 210 198 191 198 199 187 187 203 210 206 206 196 174 157 85 357 344 341 341 344 351 355 357 353 348 338 331 334 338 340 344 347 350 355 356 355 353 350 346 344 340 338 335 330 327 324 321 319 315 311 304 298
148 143 172 174 197 262 306 1 342 271 238 258 291 256 207 191 186 198 246 259 227 205 227 251 261 261 256 242 238 239 230 226 241 238 212 179 178 187 189 192 197 200 204 205 198 180 166 152 7 338 319 327 331 333 342 350 351 343 337 330 327 331 338 341 344 349 351 354 354 352 349 345 340 337 333 330 326 321 317 314 311 310 308 307 304 300
148 151 160 160 196 271 337 80 245 278 282 286 293 285 188 152 162 182 261 268 242 213 220 238 251 258 261 259 244 215 205 247 272 247 207 183 175 171 180 201 200 188 191 192 181 168 162 166 330 313 297 315 320 317 333 343 342 337 334 331 331 336 341 343 346 350 350 350 349 347 343 339 334 329 327 324 320 315 312 309 306 303 302 301 298 297
140 145 159 217 214 215 247 228 253 313 312 299 285 224 137 149 160 153 235 263 237 215 213 225 246 258 256 243 217 147 98 328 304 269 203 176 173 173 182 188 173 171 176 173 167 161 159 255 308 295 293 307 301 298 326 334 333 334 333 333 338 340 341 344 347 347 344 342 340 339 336 332 328 323 321 319 315 312 309 306 302 301 299 297 294 293
150 168 172 200 233 133 194 283 308 318 296 275 237 232 214 176 156 136 47 284 240 213 208 211 232 245 240 215 166 104 44 345 299 277 201 169 176 174 167 161 158 165 168 162 164 167 183 278 300 293 296 302 285 293 324 328 328 331 330 331 336 338 339 343 344 341 337 334 332 330 327 324 321 318 317 314 312 309 306 302 300 298 296 294 293 292
112 34 124 179 263 119 138 240 251 254 262 244 211 240 255 166 132 97 355 297 257 213 197 195 216 229 223 206 170 108 68 300 286 278 188 171 182 172 161 155 152 158 166 171 180 198 225 273 294 285 293 297 280 298 318 320 322 327 327 327 331 332 335 337 335 332 329 326 324 321 319 318 315 313 313 311 310 308 305 302 299 296 294 292 290 290
102 35 112 204 241 204 165 231 242 243 256 245 212 215 220 173 92 67 321 279 251 212 189 182 204 218 200 182 156 137 182 241 276 277 169 164 164 161 162 162 162 167 169 170 182 207 222 270 290 279 285 290 286 301 311 312 317 323 324 324 325 325 328 327 325 324 321 320 320 318 316 315 313 311 310 309 308 308 305 302 300 298 295 292 290 290
130 225 199 221 243 211 198 245 267 262 257 245 211 181 177 135 74 86 250 247 206 196 195 183 199 209 184 167 166 188 217 228 239 146 154 149 141 152 161 168 177 181 177 178 195 221 239 279 290 270 268 281 294 304 308 309 315 322 322 324 325 323 323 321 320 320 319 319 320 319 317 315 312 309 308 306 307 306 303 302 300 299 298 296 294 293
166 203 216 207 238 209 197 232 279 287 270 230 176 153 153 147 179 218 228 216 167 185 199 201 209 205 184 184 197 216 227 192 135 147 158 158 160 161 162 164 165 169 175 184 200 213 238 272 274 256 262 281 296 303 306 307 313 320 321 322 324 323 321 319 319 320 319 320 321 320 319 316 312 309 307 305 305 304 301 300 300 298 297 297 295 294
168 179 218 199 191 175 159 212 263 280 266 154 125 112 174 196 209 213 211 208 190 186 190 208 217 206 191 203 218 224 221 190 165 165 162 165 166 162 168 174 174 177 184 197 220 226 242 265 268 263 273 287 296 301 302 304 309 315 316 318 322 321 317 317 319 319 319 322 323 322 321 319 315 313 310 308 307 304 301 301 300 298 298 296 296 295
181 180 210 225 189 143 162 211 220 235 210 165 152 165 208 212 206 164 165 229 230 195 186 204 220 212 197 207 222 220 212 208 195 174 163 165 165 161 171 182 186 190 197 211 232 238 248 265 276 280 283 290 298 300 295 297 304 307 308 313 319 318 316 317 318 318 319 322 323 323 322 320 318 317 315 312 311 307 304 304 303 300 299 298 297 296
208 192 198 228 208 186 214 230 227 199 182 197 214 226 219 232 236 171 185 238 237 205 192 195 216 217 203 205 214 208 202 204 193 177 171 172 171 172 181 190 191 195 206 222 233 240 250 264 279 287 290 294 300 296 288 290 296 298 302 312 317 314 314 316 316 317 319 321 322 323 322 320 318 317 315 314 312 310 308 307 306 304 301 300 298 294
229 193 160 223 238 257 265 255 246 252 246 229 238 248 248 258 256 202 209 237 229 204 192 188 207 210 195 194 202 203 199 189 179 180 175 168 172 178 183 190 192 197 213 227 236 245 251 260 274 283 290 298 301 295 288 285 288 294 301 309 312 310 310 312 312 314 317 318 319 322 322 320 318 316 315 314 313 311 309 307 306 304 301 299 296 292
262 178 174 236 253 273 277 260 231 249 260 246 240 254 259 255 244 215 216 230 217 198 195 195 200 191 179 188 198 202 197 177 172 180 173 168 183 186 183 190 195 203 220 233 240 244 243 250 265 277 287 295 299 300 291 283 286 295 300 303 307 307 305 306 308 310 311 313 316 320 322 322 320 317 316 316 315 313 310 309 307 303 298 295 293 290
267 139 191 236 236 239 260 272 278 269 260 247 241 256 264 258 245 225 214 209 180 170 185 186 175 170 177 191 193 189 185 177 178 182 180 182 193 192 193 201 205 212 228 238 240 239 237 245 260 273 283 289 297 302 293 285 290 297 296 297 303 305 302 302 304 305 306 309 313 316 320 321 319 317 315 315 315 313 311 311 309 303 297 295 291 287
121 161 214 232 251 260 270 283 298 296 279 263 252 251 250 246 233 211 194 174 157 161 173 171 165 177 186 186 176 169 181 191 185 178 180 190 194 196 205 211 213 221 232 237 239 240 240 247 259 272 282 288 296 301 295 289 292 294 291 293 301 303 300 301 303 302 303 306 309 312 316 319 317 315 313 312 313 313 311 310 308 304 302 302 298 291
132 236 244 248 278 275 274 271 272 285 287 280 269 254 239 219 194 182 183 188 189 188 181 170 160 146 175 177 171 169 183 197 187 174 180 195 202 210 216 215 217 225 234 238 240 240 241 248 257 270 281 287 294 297 296 293 292 293 290 289 295 300 299 301 302 302 303 306 307 309 313 315 314 313 311 309 310 312 312 312 310 303 294 294 295 292
199 237 227 210 249 263 275 273 242 235 272 278 273 261 239 191 175 189 199 203 206 201 185 177 175 164 160 175 177 176 180 185 178 176 185 208 214 220 223 220 220 228 238 241 239 239 243 248 255 267 278 287 293 296 296 294 292 293 290 285 289 297 299 300 302 301 303 306 307 308 310 311 310 309 308 307 308 310 310 311 312 308 299 291 290 288
Height
839 843 856 865 871 873 875 878 874 872 868 858 855 856 860 860 861 869 871 876 881 869 866 876 873 865 861 867 876 876 880 880 876 877 876 875 876 875 875 874 874 873 869 868 868 868 868 868 869 868 868 869 868 868 869 868 868 869 869 868 868 869 869 869 868 868 868 868 867 867 866 865 865 865 864 864 863 863 862 861 861 860 860 859 859 858
842 850 868 875 877 880 878 880 876 869 865 858 855 855 863 867 865 872 873 874 880 867 865 880 871 856 855 861 871 876 876 874 872 873 872 872 873 874 874 872 871 870 867 866 866 865 865 865 865 866 866 866 866 866 866 866 866 867 867 866 866 867 866 866 866 866 865 865 865 864 864 863 863 862 861 861 860 859 859 858 858 857 857 856 856 855
852 859 870 876 880 880 877 878 871 863 862 859 860 858 859 868 869 870 872 874 879 865 861 878 869 852 855 861 867 873 872 869 870 871 869 869 870 871 871 870 869 868 865 864 863 862 862 862 863 863 864 863 863 863 864 864 864 864 864 863 864 864 864 864 864 863 863 863 863 862 861 861 860 859 859 858 857 856 855 855 854 854 853 853 853 852
852 862 872 878 879 871 867 873 865 857 862 863 862 860 860 870 869 860 865 872 878 873 868 874 866 853 858 863 863 868 870 868 868 869 870 870 868 866 867 867 866 864 863 861 860 860 860 860 860 860 860 861 861 861 860 861 861 861 860 860 861 861 861 861 861 860 860 860 860 859 858 858 857 856 856 855 853 852 851 851 851 850 850 850 849 849
859 869 878 878 876 869 860 863 863 853 859 868 865 862 863 868 869 864 868 870 872 875 874 868 853 843 852 856 852 862 871 867 867 868 866 867 866 866 866 863 863 862 861 860 858 857 857 857 857 857 857 858 858 857 856 857 858 857 857 857 858 859 858 858 858 857 858 857 857 856 855 855 854 852 852 851 848 848 848 847 847 847 847 846 846 846
868 876 879 872 871 870 858 858 871 864 856 862 865 866 867 867 870 871 870 866 860 862 871 870 850 836 846 848 843 858 868 863 866 867 860 861 862 863 863 858 858 859 858 858 856 854 855 854 854 854 855 855 854 853 853 854 855 854 855 855 855 855 855 855 854 855 855 854 853 853 852 851 850 848 847 845 843 843 844 844 844 844 843 843 843 843
870 876 877 871 866 865 860 861 875 873 855 852 864 872 874 872 871 869 866 862 856 859 873 878 860 847 845 837 842 862 864 856 860 862 857 858 858 858 858 854 854 855 854 854 854 852 852 851 853 852 851 852 852 850 851 852 852 852 852 852 852 852 852 851 851 851 851 850 849 848 848 846 846 844 841 839 839 840 841 841 840 840 840 840 840 839
868 868 870 869 864 860 859 860 871 876 858 852 870 877 875 874 869 868 866 861 863 867 875 878 870 864 853 839 854 870 857 845 847 847 848 851 852 853 853 851 851 850 850 852 851 850 850 849 850 849 848 850 850 848 850 850 850 850 849 849 849 849 848 848 848 848 847 846 845 844 844 843 841 839 836 836 837 837 838 838 837 837 837 836 836 836
872 866 867 867 863 861 862 865 873 877 864 862 879 882 879 879 874 875 870 865 876 872 863 873 875 868 854 842 860 871 852 839 835 832 833 836 841 847 848 848 848 847 848 850 850 848 847 847 848 848 848 848 848 848 849 849 848 848 848 847 847 846 845 845 845 844 844 843 842 842 841 839 837 835 834 834 834 834 834 834 833 833 833 832 833 832
872 871 874 871 866 865 867 872 875 874 869 874 885 882 882 884 881 882 873 864 874 866 858 876 881 870 855 837 845 855 843 832 827 827 829 829 835 841 843 844 845 847 848 848 849 847 846 847 847 848 849 846 846 847 847 847 846 846 846 846 845 844 843 843 842 841 841 840 840 839 837 835 833 832 831 831 830 830 830 830 829 829 829 829 829 828
875 877 879 875 871 873 873 876 880 878 877 881 884 877 873 876 876 879 878 871 865 859 869 889 887 876 861 838 832 837 832 826 823 823 827 829 832 835 839 843 845 847 848 848 848 847 846 847 846 847 847 845 844 845 845 844 844 844 844 843 842 841 841 840 840 840 839 839 838 836 834 832 830 829 829 829 827 826 827 826 825 825 825 825 824 824
874 873 874 875 875 878 875 873 880 884 886 884 878 868 860 863 868 865 867 869 858 856 878 895 889 880 864 838 826 827 829 831 829 823 823 825 827 832 840 845 846 847 847 847 848 846 846 845 844 845 844 843 843 842 843 842 842 842 841 841 839 838 839 838 838 838 837 837 836 835 833 831 830 830 830 829 826 826 826 825 824 824 822 821 820 821
867 867 871 874 876 879 873 865 870 877 880 873 864 860 854 857 864 854 856 870 866 866 887 898 887 877 863 838 825 825 825 830 836 832 827 827 828 832 841 845 845 847 847 847 847 846 846 844 843 843 842 842 842 841 842 841 841 841 839 839 838 836 836 837 836 836 835 834 834 833 832 831 831 831 830 829 827 826 826 824 823 822 820 819 819 818
858 863 869 868 869 878 874 862 858 863 868 863 860 861 854 861 869 860 869 883 875 872 892 905 891 870 854 832 821 824 824 829 837 838 836 837 836 836 841 845 845 846 846 846 847 846 845 844 843 842 842 842 842 841 842 841 840 840 838 838 837 835 835 835 835 834 833 832 831 830 830 829 829 828 827 826 824 823 823 822 821 820 820 820 819 818
856 853 862 865 867 873 873 869 865 867 871 874 880 874 857 862 867 862 868 870 868 879 894 898 881 856 837 821 819 827 831 834 836 839 843 843 844 845 844 844 842 841 843 844 846 846 844 844 843 843 843 842 843 842 842 841 840 839 838 837 836 835 834 834 833 832 831 830 829 828 828 827 826 825 823 822 821 820 819 819 818 818 818 819 819 819
866 855 866 873 874 873 870 875 878 871 869 881 890 874 859 865 868 874 889 891 896 901 892 884 869 850 836 822 825 833 830 834 838 838 841 839 843 847 839 836 838 838 842 844 845 845 843 844 844 843 844 843 843 843 842 841 840 839 838 837 836 835 834 833 832 831 830 828 827 826 825 824 823 821 820 818 817 816 816 815 815 815 814 814 815 816
861 855 870 876 873 877 875 876 880 870 862 874 877 865 872 885 876 877 897 915 923 903 880 880 865 847 842 825 821 827 821 825 833 832 834 837 841 840 831 832 838 838 842 844 845 845 844 844 844 844 844 843 843 843 842 842 840 839 838 836 836 834 833 832 831 830 828 827 825 823 822 821 820 818 817 815 813 812 812 811 811 810 809 810 810 812
866 854 867 876 867 875 883 877 878 880 873 870 866 867 882 889 882 882 885 892 904 891 878 886 867 844 844 831 818 821 816 815 821 824 830 834 834 832 829 834 839 841 843 844 844 846 845 844 844 844 844 844 844 844 842 842 840 839 838 836 835 834 832 832 830 829 827 825 823 821 820 819 817 815 813 812 810 809 808 807 806 806 806 806 807 809
880 854 857 880 872 872 884 876 870 879 882 873 869 878 880 871 871 884 882 873 882 884 875 884 884 862 849 837 820 815 813 811 816 821 824 826 828 829 831 836 840 842 844 844 845 845 844 844 844 844 845 844 844 843 842 841 840 838 837 836 835 833 832 831 829 827 825 824 822 819 817 816 814 812 810 808 807 805 804 803 803 803 804 804 805 807
886 860 851 874 879 873 875 870 863 869 881 882 878 882 883 877 874 880 887 882 879 880 874 877 881 858 837 832 820 811 813 813 815 818 819 825 829 830 834 838 840 841 843 844 845 844 844 844 844 845 845 845 844 843 842 840 839 837 836 835 833 832 830 829 827 825 822 821 819 817 815 813 811 809 807 806 804 802 801 800 800 801 801 802 803 805
886 871 855 864 877 872 862 861 859 856 867 875 874 878 881 887 891 886 891 894 881 875 880 881 866 836 824 830 821 812 813 812 815 819 822 828 831 831 837 840 839 841 843 844 844 843 844 844 845 845 845 844 843 842 841 839 838 837 835 834 833 831 829 827 825 824 821 819 817 815 812 810 808 806 804 803 801 799 798 798 798 798 798 800 802 804
880 875 866 863 865 856 849 864 872 865 865 865 861 867 871 877 885 878 880 899 899 885 881 881 861 825 814 822 817 812 813 815 823 827 826 829 830 832 837 838 839 841 842 843 843 843 844 844 844 845 843 843 842 841 840 838 837 836 835 834 832 831 829 827 825 824 821 819 816 814 811 808 806 804 801 799 798 797 796 795 796 796 798 801 802 804
884 882 876 865 859 856 860 876 883 876 876 872 866 871 875 873 872 862 863 883 898 896 895 902 883 831 807 815 814 813 819 825 831 831 827 828 830 833 836 836 840 841 840 842 842 842 844 844 844 843 842 842 841 840 840 838 837 836 835 834 832 831 829 827 826 824 821 818 816 813 810 807 805 802 799 797 795 794 794 794 795 796 798 800 801 802
885 880 872 861 855 860 871 881 885 882 879 873 871 879 879 872 869 867 872 880 881 878 883 895 878 826 806 822 824 822 829 831 831 830 827 828 831 832 835 837 839 840 840 841 841 842 843 842 842 842 841 841 840 839 839 838 837 836 835 834 832 830 829 827 825 823 821 819 816 813 811 807 805 802 800 798 796 795 795 795 795 796 797 799 800 801
875 872 870 864 854 850 853 859 865 871 875 868 868 878 876 875 883 885 889 895 881 863 863 870 852 815 808 826 827 825 828 824 824 828 826 828 831 831 835 838 838 838 839 840 840 841 841 840 841 841 840 840 840 839 839 838 837 835 834 833 831 830 828 826 824 823 821 819 816 814 811 809 806 804 802 800 799 798 797 797 797 798 798 799 800 800
875 875 871 862 857 853 844 839 839 849 865 868 869 877 875 875 880 872 875 885 876 867 868 856 829 805 805 818 818 818 822 819 820 824 825 827 829 831 835 835 835 837 837 838 840 839 840 840 840 840 840 840 839 839 838 836 835 834 832 831 830 828 827 825 824 823 821 819 817 814 812 810 808 806 804 802 801 800 800 799 799 799 799 800 800 800
883 884 876 863 857 852 841 839 848 855 858 857 859 867 871 875 877 872 873 872 864 870 868 840 821 815 810 811 813 813 816 817 818 820 822 825 828 830 833 833 833 835 836 837 839 838 839 839 838 839 839 838 838 837 836 835 833 832 831 830 829 827 826 825 824 822 820 819 817 815 813 811 809 807 805 804 803 802 801 801 800 800 799 799 799 799
883 878 876 872 863 856 851 851 861 865 858 853 853 857 862 871 878 876 867 854 851 862 850 823 827 833 815 804 809 812 813 816 818 819 820 823 826 828 830 831 832 833 835 837 837 837 838 837 837 838 837 836 836 834 834 833 832 831 830 828 827 826 825 824 823 821 820 818 817 815 813 811 809 808 806 805 804 803 801 801 800 799 799 798 798 798
882 872 876 880 868 864 868 865 864 867 864 859 858 856 859 867 872 867 854 847 850 848 827 813 825 830 813 804 805 806 811 814 815 818 820 822 825 828 829 830 831 832 834 835 835 835 835 835 835 835 834 834 833 833 833 831 830 830 828 827 826 825 824 823 822 821 819 818 816 814 812 810 809 807 806 805 804 803 802 801 800 799 799 798 798 798
880 870 881 890 874 864 869 868 868 871 867 861 860 858 859 861 863 858 848 844 848 841 825 822 830 826 812 806 804 804 809 814 816 818 821 822 824 826 828 829 830 832 833 833 833 834 833 833 834 833 833 833 832 832 831 830 829 828 827 826 825 824 823 822 821 820 818 817 815 813 811 809 808 807 805 804 804 803 802 801 800 799 799 798 798 797
879 872 884 890 872 858 861 865 868 872 870 863 856 850 850 854 857 857 852 848 849 845 836 836 841 831 812 805 808 809 810 814 816 816 818 820 822 825 827 828 829 830 831 831 831 831 831 832 832 831 832 832 831 831 830 829 828 827 825 825 824 823 822 821 820 819 817 815 814 812 810 808 807 806 805 804 803 802 802 801 800 799 799 798 798 797
882 879 882 883 867 853 860 867 863 861 863 854 838 826 827 838 846 846 844 843 841 838 839 844 843 826 806 802 808 808 808 811 812 812 815 817 821 824 824 825 827 828 829 829 829 829 830 830 830 830 830 830 829 829 828 827 826 825 824 823 822 822 821 819 818 817 815 814 812 810 809 807 806 805 804 803 803 802 801 801 800 799 798 798 797 797
890 879 875 881 865 851 866 874 860 856 850 824 807 804 803 813 828 832 830 832 832 831 831 828 817 802 798 803 805 804 805 806 807 810 813 815 818 821 821 822 825 826 827 827 827 828 828 828 829 829 828 828 827 827 826 826 824 823 823 822 821 820 819 818 817 815 813 812 810 809 808 806 805 804 803 802 801 801 800 799 799 799 798 797 797 796
898 881 878 885 866 850 867 872 858 855 837 801 793 805 803 801 811 815 809 809 817 821 814 806 799 797 800 803 801 800 802 803 806 809 810 812 815 817 818 820 822 823 824 825 825 826 827 827 827 826 826 826 825 825 824 824 823 822 822 821 820 819 818 816 815 813 812 810 809 808 806 805 804 803 802 801 800 799 799 798 798 797 796 796 795 794
891 884 885 891 878 863 870 869 847 826 809 796 800 810 807 803 806 807 801 798 807 813 808 803 800 796 796 798 799 800 802 804 807 808 809 811 813 814 817 818 820 821 822 823 824 824 825 825 825 824 824 824 823 823 823 822 822 821 820 819 818 817 816 814 813 811 810 809 808 807 805 804 803 802 801 800 799 798 797 796 796 795 794 794 793 792
880 882 881 886 884 869 864 860 833 803 794 797 799 803 807 809 810 809 802 794 797 804 804 802 797 792 794 797 798 801 805 808 808 807 808 810 811 812 815 816 817 819 820 821 822 822 823 823 823 823 822 822 822 821 821 821 820 819 818 818 816 815 814 812 811 810 809 807 807 805 804 804 802 801 800 799 797 796 795 794 793 793 792 791 790 790
875 877 875 877 878 869 864 860 840 818 805 790 784 796 805 802 801 803 796 787 785 790 794 793 790 790 793 795 799 805 808 808 804 801 804 808 810 811 813 813 815 817 818 819 819 820 821 821 821 821 820 820 820 819 819 819 818 817 817 815 814 813 812 810 809 808 807 806 805 804 803 802 801 800 799 797 796 795 793 793 791 790 790 789 788 787
875 873 869 867 869 873 875 867 851 830 800 777 783 800 802 798 799 800 798 790 780 779 785 786 786 788 789 792 800 805 805 804 799 794 800 807 809 810 812 813 814 815 816 817 817 818 819 819 819 819 818 818 818 818 818 817 816 816 815 813 813 811 810 808 807 806 806 805 804 803 802 801 800 798 797 795 794 793 792 791 790 788 788 786 785 784
878 876 873 869 869 876 876 865 854 831 795 778 790 801 804 805 801 799 799 789 774 776 784 784 784 785 785 789 798 802 804 803 793 789 798 806 806 808 811 812 813 813 814 815 816 817 818 817 817 817 816 817 816 816 816 815 814 814 813 812 811 809 808 807 806 805 804 803 802 801 800 799 798 797 795 794 792 791 790 789 787 786 785 784 783 781
879 875 877 876 869 871 872 864 855 832 800 789 795 800 807 808 799 802 803 782 769 779 787 783 782 784 785 791 799 802 802 797 788 789 799 804 804 807 809 809 811 812 813 814 815 815 815 816 815 815 815 815 815 814 814 813 812 812 810 810 808 807 806 806 804 804 803 801 800 799 798 797 796 795 794 792 790 789 787 786 785 784 783 782 780 779
883 880 880 878 871 874 875 865 850 825 797 792 798 800 805 806 802 803 792 770 768 780 785 784 782 782 785 792 797 797 794 790 790 794 799 802 803 806 807 808 810 810 811 812 813 813 814 813 813 813 813 813 813 812 812 811 810 809 808 807 806 805 805 804 803 802 800 799 798 797 796 795 794 792 791 790 788 787 785 784 783 781 780 779 777 776
872 878 881 881 874 872 872 866 855 826 792 786 798 803 805 801 793 785 775 769 773 777 780 784 782 781 786 791 791 791 789 790 794 796 798 801 803 804 806 807 808 809 810 811 811 811 812 812 812 812 811 811 811 810 809 809 808 807 806 805 804 803 802 802 800 799 798 797 795 794 793 792 791 790 789 787 786 784 782 781 780 779 778 776 774 773
842 847 859 872 866 860 869 874 856 815 785 785 796 801 802 790 773 768 770 773 776 774 777 782 782 782 786 786 787 789 789 791 795 795 797 800 800 802 804 805 806 807 808 809 809 809 810 810 810 810 809 809 809 808 807 806 805 805 804 803 802 801 800 799 798 797 796 794 793 792 791 790 789 788 786 785 784 782 780 779 778 776 775 774 772 770
830 822 826 841 841 839 850 848 818 785 779 786 780 775 782 778 767 768 771 770 773 776 777 778 779 782 784 783 785 788 789 791 793 793 796 799 799 801 802 802 804 805 805 806 807 807 808 808 807 808 807 807 807 806 805 804 803 802 802 800 800 799 797 797 796 795 794 792 791 790 789 788 787 785 784 783 781 779 778 776 775 774 772 771 770 768
811 805 800 806 812 811 805 794 781 774 782 786 773 764 770 772 770 773 772 768 772 775 776 777 777 779 782 782 784 786 787 789 791 792 795 796 797 799 800 800 802 802 803 804 805 804 805 805 805 805 805 804 804 803 803 803 801 800 799 798 798 797 795 795 794 792 792 791 789 788 787 785 784 783 782 780 779 777 775 773 772 771 769 768 767 765
800 805 803 799 799 796 780 768 771 774 774 776 775 772 772 772 771 773 772 770 771 772 774 776 775 775 780 781 782 784 786 786 788 791 792 794 796 798 798 799 800 800 801 802 802 803 803 803 802 803 802 802 802 801 801 801 800 798 797 796 796 795 794 793 792 791 790 789 787 786 785 783 781 780 778 777 776 774 773 771 769 768 766 765 763 761
797 804 807 799 795 791 776 763 768 771 767 769 772 770 770 771 771 771 770 769 770 771 772 774 774 775 778 779 780 782 783 784 787 789 791 793 795 796 796 797 798 798 799 800 800 801 801 801 801 801 800 799 799 799 799 798 797 797 796 794 794 793 792 791 790 789 788 787 785 784 782 780 778 776 775 774 773 771 770 769 767 765 763 761 760 758
796 802 803 796 792 788 773 762 767 771 768 768 768 767 767 767 766 769 770 769 769 771 772 773 774 775 776 778 779 780 781 784 785 787 790 792 793 794 795 795 795 797 798 798 798 799 799 799 799 798 798 797 797 797 797 796 795 795 794 793 792 791 790 789 788 787 786 785 783 781 780 778 776 774 772 771 769 768 767 765 764 762 760 758 757 756
798 800 794 789 789 785 775 768 770 769 764 762 764 764 764 764 764 767 769 769 770 771 772 773 774 775 775 777 777 778 780 783 784 786 788 790 791 792 793 793 794 795 795 796 797 797 797 797 797 796 796 795 795 795 794 793 793 793 792 791 790 789 788 787 786 784 783 782 780 779 777 775 774 772 770 768 766 765 763 762 761 758 756 754 753 752
798 793 787 790 790 782 773 769 769 767 762 758 759 760 761 763 765 766 767 769 769 770 771 773 774 775 776 776 776 778 779 781 783 785 786 787 789 790 790 791 793 793 793 794 795 794 795 795 794 794 793 793 793 792 791 791 790 790 789 789 788 787 786 784 783 782 780 779 778 776 774 773 771 769 768 766 764 761 759 757 756 755 753 751 749 749
790 782 782 787 783 772 765 764 767 768 764 758 758 760 762 763 765 764 765 766 767 768 770 771 772 774 776 776 776 777 778 780 782 784 785 786 787 787 788 790 790 790 791 792 792 792 792 792 792 792 791 790 790 790 788 788 787 787 787 786 785 785 784 782 781 779 777 776 775 773 771 770 768 766 765 763 761 759 756 752 750 749 749 748 746 744